Skip to main content.
Our real time weather data display below is updated continuously via our 24/7 live data feed.
 TIME   TEMPERATURE   WINDSPEED   DIRECTION   HUMIDITY   BAROMETER   RAINFALL 
11:10 18.0°C (64.4°F) 14.8 kmh (9.2 mph) NE 45% 1017.9hPa (30.06 inHg) 0.0mm (0.00 in.)
10:10 18.0°C (64.4 °F) 7.4 kmh (4.6 mph) N 45% 1016.9hPa (30.03 inHg) 0.0mm (0.00 in.)
9:05 18.0°C (64.4 °F) 5.6 kmh (3.5 mph) N 45% 1016.9hPa (30.03 inHg) 0.0mm (0.00 in.)
8:05 19.0°C (66.2 °F) 14.8 kmh (9.2 mph) N 42% 1016.9hPa (30.03 inHg) 0.0mm (0.00 in.)
7:05 21.0°C (69.8 °F) 16.7 kmh (10.4 mph) N 35% 1016.9hPa (30.03 inHg) 0.0mm (0.00 in.)
6:05 22.0°C (71.6 °F) 22.2 kmh (13.8 mph) N 37% 1016.9hPa (30.03 inHg) 0.0mm (0.00 in.)
5:05 21.0°C (69.8 °F) 16.7 kmh (10.4 mph) N 40% 1016.9hPa (30.03 inHg) 0.0mm (0.00 in.)
4:05 21.0°C (69.8 °F) 25.9 kmh (16.1 mph) N 37% 1016.9hPa (30.03 inHg) 0.0mm (0.00 in.)
3:05 22.0°C (71.6 °F) 22.2 kmh (13.8 mph) N 37% 1017.9hPa (30.06 inHg) 0.0mm (0.00 in.)
2:05 22.0°C (71.6 °F) 20.4 kmh (12.7 mph) N 40% 1017.9hPa (30.06 inHg) 0.0mm (0.00 in.)
1:05 22.0°C (71.6 °F) 20.4 kmh (12.7 mph) N 40% 1017.9hPa (30.06 inHg) 0.0mm (0.00 in.)
12:05 22.0°C (71.6 °F) 24.1 kmh (15.0 mph) N 49% 1017.9hPa (30.06 inHg) 0.0mm (0.00 in.)
11:05 21.0°C (69.8 °F) 22.2 kmh (13.8 mph) N 46% 1017.9hPa (30.06 inHg) 0.0mm (0.00 in.)
10:05 21.0°C (69.8 °F) 20.4 kmh (12.7 mph) N 46% 1017.9hPa (30.06 inHg) 0.0mm (0.00 in.)
9:05 19.0°C (66.2 °F) 13.0 kmh (8.1 mph) N 63% 1016.9hPa (30.03 inHg) 0.0mm (0.00 in.)
8:05 17.0°C (62.6 °F) 7.4 kmh (4.6 mph) N 77% 1016.9hPa (30.03 inHg) 0.0mm (0.00 in.)
7:05 15.0°C (59.0 °F) 9.3 kmh (5.8 mph) N 87% 1016.9hPa (30.03 inHg) 0.0mm (0.00 in.)
6:05 14.0°C (57.2 °F) 11.1 kmh (6.9 mph) N 87% 1015.9hPa (30.00 inHg) 0.0mm (0.00 in.)
5:05 14.0°C (57.2 °F) 13.0 kmh (8.1 mph) N 87% 1015.9hPa (30.00 inHg) 0.0mm (0.00 in.)
4:05 14.0°C (57.2 °F) 11.1 kmh (6.9 mph) N 87% 1014.9hPa (29.97 inHg) 0.0mm (0.00 in.)
3:05 14.0°C (57.2 °F) 7.4 kmh (4.6 mph) N 82% 1014.9hPa (29.97 inHg) 0.0mm (0.00 in.)
2:05 14.0°C (57.2 °F) 7.4 kmh (4.6 mph) N 82% 1015.9hPa (30.00 inHg) 0.0mm (0.00 in.)
1:05 15.0°C (59.0 °F) 3.7 kmh (2.3 mph) N 76% 1015.9hPa (30.00 inHg) 0.0mm (0.00 in.)
12:05 15.0°C (59.0 °F) 3.7 kmh (2.3 mph) N 76% 1015.9hPa (30.00 inHg) 0.0mm (0.00 in.)